This is the latest recevied weather packets stored in our database for station/object N6GPM. If no packets are shown the sender has not sent any weather packets the latest 10 day(s).
| Time | Temp. | Humidity | Pressure | Rain* | Wind** | Luminosity | Snow |
|---|---|---|---|---|---|---|---|
| 1777747330 | 21.67° C | 67% | 1017.5 hPa | 0 mm | - | 810 W/m² | - |
| 1777747027 | 21.67° C | 64% | 1017.7 hPa | 0 mm | - | 835 W/m² | - |
| 1777746723 | 21.67° C | 66% | 1017.5 hPa | 0 mm | - | 851 W/m² | - |
| 1777746418 | 21.67° C | 65% | 1017.6 hPa | 0 mm | - | 869 W/m² | - |
| 1777746114 | 21.11° C | 67% | 1017.7 hPa | 0 mm | - | 700 W/m² | - |
| 1777745812 | 20.56° C | 68% | 1017.7 hPa | 0 mm | - | 866 W/m² | - |
| 1777745510 | 20.56° C | 70% | 1017.7 hPa | 0 mm | - | 897 W/m² | - |
| 1777745207 | 20° C | 69% | 1017.8 hPa | 0 mm | - | 907 W/m² | - |
| 1777744904 | 20.56° C | 71% | 1017.7 hPa | 0 mm | - | 919 W/m² | - |
| 1777744603 | 20.56° C | 69% | 1017.8 hPa | 0 mm | - | 911 W/m² | - |
| 1777744299 | 20° C | 71% | 1017.9 hPa | 0 mm | - | 903 W/m² | - |
| 1777743996 | 20° C | 71% | 1017.8 hPa | 0 mm | - | 893 W/m² | - |
| 1777743692 | 20° C | 73% | 1017.8 hPa | 0 mm | - | 851 W/m² | - |
| 1777743390 | 20° C | 72% | 1018 hPa | 0 mm | - | 838 W/m² | - |
| 1777743088 | 20° C | 73% | 1017.8 hPa | 0 mm | - | 820 W/m² | - |
| 1777742785 | 19.44° C | 75% | 1017.9 hPa | 0 mm | - | 839 W/m² | - |
| 1777742482 | 18.89° C | 76% | 1017.8 hPa | 0 mm | - | 828 W/m² | - |
| 1777742177 | 18.33° C | 78% | 1017.9 hPa | 0 mm | - | 798 W/m² | - |
| 1777741874 | 17.78° C | 79% | 1017.9 hPa | 0 mm | - | 768 W/m² | - |
| 1777741571 | 17.22° C | 82% | 1017.8 hPa | 0 mm | - | 732 W/m² | - |
| 1777741268 | 16.11° C | 87% | 1017.7 hPa | 0 mm | - | 722 W/m² | - |
| 1777740965 | 15.56° C | 92% | 1017.8 hPa | 0 mm | - | 689 W/m² | - |
| 1777740662 | 15.56° C | 94% | 1018 hPa | 0 mm | - | 694 W/m² | - |
| 1777740358 | 15° C | 94% | 1018.2 hPa | 0 mm | - | 698 W/m² | - |
| 1777740055 | 14.44° C | 95% | 1018.1 hPa | 0 mm | - | 665 W/m² | - |
* Rain latest hour (hover to see other rain measurements)
** Current wind speed in m/s (hover to see current wind gust speed)